Location: Unspecified
(51.5147°N, 7.4673°E)
Time: 18:04:22
(UTC+01:00)

Vanguard 1 - Pass Details

Date: 21 February 2026
Orbit: 653 x 3818 km, 34.2° (Epoch: 5 March)

Event Time Altitude Azimuth Distance (km) Brightness Sun altitude
Rises 21:57:19 0° 272° (W) 6,680 15.0 -36.7°
Reaches altitude 10° 22:03:43 10° 256° (WSW) 6,159 14.5 -37.5°
Maximum altitude 22:14:58 18° 222° (SW) 6,045 14.0 -38.9°
Drops below altitude 10° 22:27:35 10° 188° (S) 6,906 14.1 -40.4°
Enters shadow 22:27:47 10° 188° (S) 6,925 14.1 -40.4°
